Flag for U.S.A. Weather past 2 weeks in Denver, Colorado, U.S.A.

Now
58 °F

Mostly cloudy.


Feels Like: 58 °F
Forecast: 53 / 73 °F
Wind: 5 mph from South

Location: Buckley Air Force Base

Current Time: Jul 31, 2014 at 9:43:54 AM

Latest Report: Jul 31, 2014 at 8:58 AM


Visibility: 10 mi

Pressure: 30.19 "Hg

Humidity: 91%

Dew point: 56 °F

Location of DenverLocation

Historic Weather in Denver — Graph

°F

Denver temperature yesterday

Maximum temperature yesterday: 60 °F (at 10:58 AM)
Minimum temperature yesterday: 57 °F (at 9:58 PM)
Average temperature yesterday: 58 °F

Past Weeks' High & Low Weather Summary

 TemperatureHumidityPressure
High93 °F (Jul 24, 3:58 PM)100% (Jul 16, 7:58 AM)30.35 "Hg (Jul 16, 7:58 AM)
Low55 °F (Jul 17, 12:58 AM)14% (Jul 20, 1:58 PM)29.78 "Hg (Jul 20, 12:58 AM)
Average71 °F58%29.99 "Hg
* Reported Jul 16 7:58 AM — Jul 31 7:58 AM, Denver, Weather by CustomWeather, © 2014

Note: Actual official high and low records may vary slightly from our data, if they occured in-between our weather recording intervals... More about our weather records

Advertising

Denver weather history for previous 24 hours

 ConditionsComfort  
Time TempWeatherWind HumidityBarometerVisibility
7:58 AM
Jul 31
58 °FMostly cloudy.No wind99%30.19 "Hg10 mi
6:58 AM57 °FLight rain. Fog.2 mph100%30.19 "Hg6 mi
5:58 AM56 °FPassing clouds.No wind99%30.17 "Hg10 mi
4:58 AM56 °FPassing clouds.2 mph99%30.15 "Hg10 mi
3:58 AM57 °FPassing clouds.5 mph96%30.15 "Hg10 mi
2:58 AM57 °FMostly cloudy.7 mph99%30.15 "Hg10 mi
1:58 AM56 °FMostly cloudy.7 mph100%30.17 "Hg10 mi
12:58 AM57 °FMostly cloudy.2 mph100%30.20 "Hg10 mi
11:58 PM
Jul 30
57 °FPartly cloudy.2 mph100%30.22 "Hg10 mi
10:58 PM57 °FOvercast.3 mph100%30.22 "Hg10 mi
9:58 PM57 °FLight rain. Overcast.5 mph99%30.23 "Hg9 mi
8:58 PM57 °FLight rain. More clouds than sun.6 mph99%30.22 "Hg7 mi
7:58 PM57 °FLight rain. More clouds than sun.5 mph99%30.23 "Hg7 mi
6:58 PM58 °FLight rain. Fog.10 mph99%30.22 "Hg6 mi
5:58 PM58 °FLight rain. Fog.9 mph100%30.21 "Hg6 mi
4:58 PM58 °FHeavy rain. Fog.2 mph99%30.22 "Hg1 mi
3:58 PM59 °FMostly cloudy.8 mph99%30.21 "Hg7 mi
2:58 PM59 °FFog.6 mph100%30.21 "Hg5 mi
1:58 PM59 °FDrizzle. Mostly cloudy.5 mph100%30.21 "Hg10 mi
12:58 PM57 °FHeavy rain. Fog.7 mph100%30.22 "Hg5 mi
11:58 AM58 °FRain. Fog.7 mph99%30.22 "Hg3 mi
10:58 AM60 °FLight rain. Mostly cloudy.13 mph94%30.35 "Hg7 mi
9:58 AM58 °FLight rain. Fog.10 mph100%30.19 "Hg5 mi
Weather by CustomWeather, © 2014

See weather overviewHow to use our weather pages